Simultaneous Nadir Overpasses (SNOs) Predictions

Prediction of SNOs between GOES-14 and AQUA Satellite Orbit:

Table of predicted SNOs for the next 14.0 days since TLE Epoch: 7/21/2023
Index Date Time (GOES-14) GOES-14 Lat,Lon AQUA Lat,Lon Distance(km) Time Diff (sec)
1 07/22/2023 21:06:58 0.32,-108.55 0.14,-109.28 84.47 80
2 07/24/2023 20:55:22 0.32,-108.54 0.89,-105.80 311.43 80
3 07/25/2023 09:13:26 -0.34,-108.65 0.11,-110.84 248.17 80
4 07/27/2023 09:01:49 -0.34,-108.64 -0.62,-107.35 147.33 80
5 07/27/2023 21:20:01 0.37,-108.53 -0.45,-112.40 440.24 80
6 07/29/2023 21:05:43 0.37,-108.52 0.27,-108.91 45.09 80
7 07/31/2023 20:54:05 0.37,-108.50 1.02,-105.42 349.94 80
8 08/01/2023 09:12:08 -0.39,-108.61 0.03,-110.44 209.30 80
9 08/03/2023 09:00:30 -0.39,-108.60 -0.76,-106.96 186.19 80
10 08/03/2023 21:18:41 0.41,-108.48 -0.33,-112.01 401.51 80
